NKS893 KDFW-MMUN

Flight info

Callsign NKS893
Flight time N/A
Altitude 39000
Route DARTZ9 TNV DCT SBI A766 KEHLI UL209 BETAS DCT VOMAR VOMAR1A
Aircraft A20N/M-SDE2E3FGHIRWXY/LB1

Departure

Time 2026-05-07 05:02
Airport Dallas Fort Worth International Airport (KDFW)

Arrival

Time N/A
Airport Cancún International Airport (MMUN)
Time Latitude Longitude Altitude Speed Heading
2026-05-07 04:35 32.88783 -97.03643 601 ft 0 kts 322°
2026-05-07 04:50 32.88780 -97.03639 601 ft 3 kts 323°
2026-05-07 04:50 32.88760 -97.03623 601 ft 4 kts 326°
2026-05-07 04:50 32.88738 -97.03611 601 ft 4 kts 13°
2026-05-07 04:50 32.88722 -97.03627 601 ft 4 kts 70°
2026-05-07 04:51 32.88714 -97.03658 601 ft 4 kts 72°
2026-05-07 04:51 32.88710 -97.03672 601 ft 0 kts 63°
2026-05-07 04:53 32.88721 -97.03605 601 ft 17 kts 107°
2026-05-07 04:54 32.88628 -97.03565 601 ft 13 kts 187°
2026-05-07 04:54 32.88604 -97.03618 601 ft 14 kts 267°
2026-05-07 04:54 32.88605 -97.03833 601 ft 30 kts 271°
2026-05-07 04:54 32.88604 -97.04085 601 ft 31 kts 270°
2026-05-07 04:55 32.88606 -97.04341 601 ft 30 kts 270°
2026-05-07 04:55 32.88608 -97.04563 601 ft 21 kts 270°
2026-05-07 04:55 32.88604 -97.04738 601 ft 21 kts 250°
2026-05-07 04:55 32.88499 -97.04792 601 ft 17 kts 202°
2026-05-07 04:56 32.88356 -97.04808 601 ft 23 kts 180°
2026-05-07 04:56 32.88195 -97.04809 601 ft 24 kts 180°
2026-05-07 04:56 32.88013 -97.04810 601 ft 27 kts 180°
2026-05-07 04:56 32.87913 -97.04838 601 ft 9 kts 249°
2026-05-07 04:57 32.87910 -97.04905 601 ft 0 kts 271°
2026-05-07 04:58 32.87911 -97.04967 601 ft 0 kts 270°
2026-05-07 05:00 32.87911 -97.04968 601 ft 1 kts 270°
2026-05-07 05:00 32.87911 -97.05016 601 ft 9 kts 270°
2026-05-07 05:00 32.87931 -97.05086 601 ft 10 kts 323°
2026-05-07 05:01 32.87998 -97.05094 601 ft 10 kts
2026-05-07 05:01 32.88017 -97.05094 601 ft 1 kts
2026-05-07 05:01 32.88025 -97.05094 607 ft 0 kts
2026-05-07 05:01 32.88026 -97.05094 607 ft 2 kts
2026-05-07 05:02 32.88368 -97.05090 602 ft 100 kts
2026-05-07 05:02 32.89376 -97.05085 776 ft 175 kts
2026-05-07 05:02 32.90707 -97.05066 1360 ft 211 kts
2026-05-07 05:02 32.92316 -97.05022 2077 ft 248 kts
2026-05-07 05:03 32.94113 -97.05174 2963 ft 268 kts 352°
2026-05-07 05:03 32.95873 -97.05781 4368 ft 263 kts 342°
2026-05-07 05:03 32.97567 -97.06519 5876 ft 255 kts 338°
2026-05-07 05:03 32.99154 -97.07417 7153 ft 251 kts 324°
2026-05-07 05:04 33.00378 -97.08864 8342 ft 248 kts 301°
2026-05-07 05:04 33.00979 -97.10766 9584 ft 247 kts 278°
2026-05-07 05:04 33.01028 -97.12813 10449 ft 248 kts 267°
2026-05-07 05:04 33.00900 -97.14867 10921 ft 249 kts 265°
2026-05-07 05:05 33.00721 -97.16931 11084 ft 251 kts 264°
2026-05-07 05:05 33.00510 -97.18974 11103 ft 252 kts 263°
2026-05-07 05:05 33.00294 -97.21040 11103 ft 252 kts 263°
2026-05-07 05:05 32.99955 -97.23086 11102 ft 253 kts 253°
2026-05-07 05:06 32.99104 -97.24924 11104 ft 257 kts 235°
2026-05-07 05:06 32.97870 -97.26481 11102 ft 260 kts 229°
2026-05-07 05:06 32.96534 -97.27939 11104 ft 262 kts 223°
2026-05-07 05:06 32.94929 -97.29009 11096 ft 271 kts 204°
2026-05-07 05:07 32.93022 -97.29311 11183 ft 285 kts 187°
2026-05-07 05:07 32.90960 -97.29243 11536 ft 310 kts 184°
2026-05-07 05:07 32.88766 -97.29110 12322 ft 326 kts 184°
2026-05-07 05:07 32.86483 -97.28964 13438 ft 331 kts 184°
2026-05-07 05:08 32.84179 -97.28821 14499 ft 334 kts 185°
2026-05-07 05:08 32.81835 -97.28686 15428 ft 340 kts 185°
2026-05-07 05:08 32.79447 -97.28511 16337 ft 350 kts 181°
2026-05-07 05:08 32.77054 -97.27586 17245 ft 378 kts 159°
2026-05-07 05:09 32.74860 -97.25732 18116 ft 395 kts 149°
2026-05-07 05:09 32.72726 -97.23615 18889 ft 403 kts 148°
2026-05-07 05:09 32.70578 -97.21460 19671 ft 407 kts 149°
2026-05-07 05:09 32.68392 -97.19296 20492 ft 410 kts 149°
2026-05-07 05:10 32.66219 -97.17170 21327 ft 411 kts 149°
2026-05-07 05:10 32.63994 -97.15010 22120 ft 415 kts 150°
2026-05-07 05:10 32.61743 -97.12839 22835 ft 421 kts 150°
2026-05-07 05:10 32.59454 -97.10637 23543 ft 426 kts 150°
2026-05-07 05:11 32.57142 -97.08417 24157 ft 430 kts 151°
2026-05-07 05:11 32.54808 -97.06176 24795 ft 433 kts 151°
2026-05-07 05:11 32.52463 -97.03927 25442 ft 436 kts 152°
2026-05-07 05:11 32.50101 -97.01664 26072 ft 438 kts 152°
2026-05-07 05:12 32.47748 -96.99412 26672 ft 441 kts 152°
2026-05-07 05:12 32.45352 -96.97121 27241 ft 444 kts 153°
2026-05-07 05:12 32.42941 -96.94817 27799 ft 447 kts 153°
2026-05-07 05:12 32.40512 -96.92497 28371 ft 448 kts 153°
2026-05-07 05:13 32.38083 -96.90178 28910 ft 451 kts 153°
2026-05-07 05:13 32.35633 -96.87843 29433 ft 454 kts 153°
2026-05-07 05:13 32.33163 -96.85491 29897 ft 457 kts 153°
2026-05-07 05:13 32.30666 -96.83161 30369 ft 454 kts 156°
2026-05-07 05:14 32.28045 -96.81210 30979 ft 437 kts 165°
2026-05-07 05:14 32.25350 -96.79842 31552 ft 422 kts 173°
2026-05-07 05:14 32.22592 -96.78723 32148 ft 417 kts 175°
2026-05-07 05:14 32.19840 -96.77659 32717 ft 415 kts 175°
2026-05-07 05:15 32.17098 -96.76604 33299 ft 413 kts 175°
2026-05-07 05:15 32.14366 -96.75551 33751 ft 414 kts 175°
2026-05-07 05:15 32.11621 -96.74492 34158 ft 415 kts 175°
2026-05-07 05:15 32.08877 -96.73429 34589 ft 415 kts 175°
2026-05-07 05:16 32.06135 -96.72365 34998 ft 415 kts 176°
2026-05-07 05:16 32.03395 -96.71301 35400 ft 415 kts 176°
2026-05-07 05:16 32.00653 -96.70237 35794 ft 414 kts 176°
2026-05-07 05:16 31.97913 -96.69174 36176 ft 414 kts 176°
2026-05-07 05:17 31.95211 -96.68127 36548 ft 414 kts 176°
2026-05-07 05:17 31.92473 -96.67067 36915 ft 415 kts 177°
2026-05-07 05:17 31.89731 -96.66005 37216 ft 415 kts 176°
2026-05-07 05:17 31.86994 -96.64946 37573 ft 415 kts 176°
2026-05-07 05:18 31.84249 -96.63885 37924 ft 415 kts 177°
2026-05-07 05:18 31.81508 -96.62825 38269 ft 415 kts 177°
2026-05-07 05:18 31.78769 -96.61767 38609 ft 415 kts 177°
2026-05-07 05:18 31.76028 -96.60708 38906 ft 415 kts 177°
2026-05-07 05:19 31.73322 -96.59666 39052 ft 416 kts 177°
2026-05-07 05:19 31.70571 -96.58604 39063 ft 415 kts 177°
2026-05-07 05:19 31.65089 -96.56490 39060 ft 414 kts 177°
2026-05-07 05:20 31.59622 -96.54388 39054 ft 414 kts 177°
2026-05-07 05:20 31.54139 -96.52283 39054 ft 415 kts 177°
2026-05-07 05:21 31.45941 -96.49185 39053 ft 414 kts 177°
2026-05-07 05:22 31.40449 -96.47127 39054 ft 414 kts 177°
2026-05-07 05:22 31.34946 -96.45071 39032 ft 420 kts 177°
2026-05-07 05:23 31.29267 -96.42962 39051 ft 436 kts 176°
2026-05-07 05:23 31.23452 -96.40791 39045 ft 445 kts 176°
2026-05-07 05:24 31.17560 -96.38580 39042 ft 444 kts 176°
2026-05-07 05:24 31.11682 -96.36384 39039 ft 442 kts 176°
2026-05-07 05:25 31.05825 -96.34205 39034 ft 443 kts 176°
2026-05-07 05:25 30.99940 -96.32020 39034 ft 444 kts 175°
2026-05-07 05:26 30.94089 -96.29848 39033 ft 444 kts 175°
2026-05-07 05:26 30.88200 -96.27666 39053 ft 444 kts 176°
2026-05-07 05:27 30.82308 -96.25485 39058 ft 445 kts 175°
2026-05-07 05:27 30.76404 -96.23304 39062 ft 447 kts 175°
2026-05-07 05:28 30.70510 -96.21129 39063 ft 448 kts 175°
2026-05-07 05:28 30.64568 -96.18937 39055 ft 448 kts 175°
2026-05-07 05:29 30.58624 -96.16748 39031 ft 448 kts 175°
2026-05-07 05:29 30.52678 -96.14561 39023 ft 448 kts 175°
2026-05-07 05:30 30.46741 -96.12381 38970 ft 448 kts 175°
2026-05-07 05:30 30.40841 -96.10217 38946 ft 448 kts 175°
2026-05-07 05:31 30.34922 -96.07848 38840 ft 460 kts 167°
2026-05-07 05:31 30.32093 -96.05958 38827 ft 480 kts 156°
2026-05-07 05:31 30.29548 -96.03339 38828 ft 501 kts 142°
2026-05-07 05:31 30.27466 -96.00023 38830 ft 521 kts 128°
2026-05-07 05:32 30.25956 -95.96158 38800 ft 532 kts 119°
2026-05-07 05:32 30.23504 -95.88049 38873 ft 535 kts 115°
2026-05-07 05:33 30.21262 -95.79923 38882 ft 534 kts 115°
2026-05-07 05:33 30.18961 -95.71760 38923 ft 534 kts 115°
2026-05-07 05:34 30.16605 -95.63628 38926 ft 533 kts 116°
2026-05-07 05:34 30.14246 -95.55578 39003 ft 533 kts 116°
2026-05-07 05:35 30.11847 -95.47418 39011 ft 533 kts 116°
2026-05-07 05:35 30.09479 -95.39379 38991 ft 533 kts 116°
2026-05-07 05:36 30.07091 -95.31285 38982 ft 532 kts 116°
2026-05-07 05:36 30.04708 -95.23222 38988 ft 529 kts 116°
2026-05-07 05:37 30.02326 -95.15188 38982 ft 529 kts 116°
2026-05-07 05:37 29.99956 -95.07221 38973 ft 528 kts 115°
2026-05-07 05:38 29.97578 -94.99237 38967 ft 526 kts 116°
2026-05-07 05:38 29.95194 -94.91263 38956 ft 526 kts 115°
2026-05-07 05:39 29.92809 -94.83300 38955 ft 525 kts 115°
2026-05-07 05:39 29.90418 -94.75340 38955 ft 525 kts 115°
2026-05-07 05:40 29.88041 -94.67442 38952 ft 525 kts 115°
2026-05-07 05:40 29.85643 -94.59495 38944 ft 525 kts 115°
2026-05-07 05:41 29.83239 -94.51549 38944 ft 525 kts 115°
2026-05-07 05:41 29.80832 -94.43610 38948 ft 525 kts 115°
2026-05-07 05:42 29.78421 -94.35679 38944 ft 525 kts 115°
2026-05-07 05:42 29.76024 -94.27814 38944 ft 525 kts 115°
2026-05-07 05:43 29.73607 -94.19898 38946 ft 523 kts 115°
2026-05-07 05:43 29.71199 -94.12028 38948 ft 520 kts 115°
2026-05-07 05:44 29.68416 -94.04467 38945 ft 501 kts 133°
2026-05-07 05:44 29.66150 -94.01537 38947 ft 482 kts 148°
2026-05-07 05:44 29.63592 -93.99174 38943 ft 477 kts 152°
2026-05-07 05:45 29.58275 -93.94610 38938 ft 478 kts 152°
2026-05-07 05:45 29.52959 -93.90009 38938 ft 479 kts 152°
2026-05-07 05:46 29.47655 -93.85389 38915 ft 479 kts 152°
2026-05-07 05:46 29.42365 -93.80775 38940 ft 477 kts 151°
2026-05-07 05:47 29.37116 -93.76200 38944 ft 477 kts 151°
2026-05-07 05:47 29.31829 -93.71598 38945 ft 478 kts 151°
2026-05-07 05:48 29.26536 -93.66995 38945 ft 478 kts 151°
2026-05-07 05:48 29.21279 -93.62431 38943 ft 478 kts 151°
2026-05-07 05:49 29.15985 -93.57839 38941 ft 477 kts 151°
2026-05-07 05:49 29.10693 -93.53255 38941 ft 477 kts 151°
2026-05-07 05:50 29.05407 -93.48683 38941 ft 477 kts 151°
2026-05-07 05:50 29.00118 -93.44115 38941 ft 476 kts 151°
2026-05-07 05:51 28.94866 -93.39584 38941 ft 476 kts 151°
2026-05-07 05:51 28.89572 -93.35023 38933 ft 476 kts 150°
2026-05-07 05:52 28.84285 -93.30473 38940 ft 476 kts 150°
2026-05-07 05:52 28.78997 -93.25930 38941 ft 476 kts 150°
2026-05-07 05:53 28.73712 -93.21394 38941 ft 476 kts 150°
2026-05-07 05:53 28.68456 -93.16889 38938 ft 476 kts 150°
2026-05-07 05:54 28.63163 -93.12359 38940 ft 476 kts 150°
2026-05-07 05:54 28.57876 -93.07839 38943 ft 475 kts 150°
2026-05-07 05:55 28.52589 -93.03326 38945 ft 475 kts 150°
2026-05-07 05:55 28.47326 -92.98838 38942 ft 476 kts 150°
2026-05-07 05:56 28.42024 -92.94323 38942 ft 476 kts 150°
2026-05-07 05:56 28.36719 -92.89811 38953 ft 476 kts 150°
2026-05-07 05:57 28.31416 -92.85307 38949 ft 476 kts 150°
2026-05-07 05:57 28.26114 -92.80808 38953 ft 476 kts 150°
2026-05-07 05:58 28.20843 -92.76343 38949 ft 476 kts 150°
2026-05-07 05:58 28.15538 -92.71854 38952 ft 476 kts 150°
2026-05-07 05:59 28.10236 -92.67373 38951 ft 476 kts 150°
2026-05-07 05:59 28.04923 -92.62889 38952 ft 477 kts 150°
2026-05-07 06:00 27.99637 -92.58433 38955 ft 477 kts 150°
2026-05-07 06:00 27.94319 -92.53955 38956 ft 476 kts 150°
2026-05-07 06:01 27.89010 -92.49491 38956 ft 476 kts 150°
2026-05-07 06:01 27.83690 -92.45024 38956 ft 476 kts 150°
2026-05-07 06:02 27.78373 -92.40564 38959 ft 476 kts 150°
2026-05-07 06:02 27.73086 -92.36135 38957 ft 476 kts 150°
2026-05-07 06:03 27.67766 -92.31684 38958 ft 476 kts 150°
2026-05-07 06:03 27.62448 -92.27240 38956 ft 476 kts 150°
2026-05-07 06:04 27.57121 -92.22794 38959 ft 476 kts 150°
2026-05-07 06:04 27.51826 -92.18380 38959 ft 477 kts 150°
2026-05-07 06:05 27.46492 -92.13940 38957 ft 477 kts 150°
2026-05-07 06:05 27.41161 -92.09507 38956 ft 476 kts 150°
2026-05-07 06:06 27.35832 -92.05080 38960 ft 476 kts 150°
2026-05-07 06:06 27.30540 -92.00691 38949 ft 476 kts 150°
2026-05-07 06:07 27.25211 -91.96277 38958 ft 476 kts 150°
2026-05-07 06:07 27.19880 -91.91865 38952 ft 476 kts 150°
2026-05-07 06:08 27.14553 -91.87463 38946 ft 476 kts 149°
2026-05-07 06:08 27.09212 -91.83053 38952 ft 476 kts 149°
2026-05-07 06:09 27.03914 -91.78685 38950 ft 476 kts 149°
2026-05-07 06:09 26.98577 -91.74291 38952 ft 476 kts 149°
2026-05-07 06:10 26.93237 -91.69899 38953 ft 476 kts 149°
2026-05-07 06:10 26.87898 -91.65512 38954 ft 476 kts 149°
2026-05-07 06:11 26.82593 -91.61160 38956 ft 476 kts 149°
2026-05-07 06:11 26.79023 -91.58233 38957 ft 475 kts 149°
2026-05-07 06:12 26.71922 -91.52419 38946 ft 475 kts 149°
2026-05-07 06:12 26.66584 -91.48056 38954 ft 475 kts 149°
2026-05-07 06:13 26.61245 -91.43695 38956 ft 475 kts 149°
2026-05-07 06:13 26.55944 -91.39371 38955 ft 475 kts 149°
2026-05-07 06:14 26.50604 -91.35020 38954 ft 474 kts 149°
2026-05-07 06:14 26.48002 -91.32895 39588 ft 448 kts 149°
2026-05-07 06:14 26.45586 -91.30895 40557 ft 419 kts 148°
2026-05-07 06:14 26.43290 -91.28956 40728 ft 414 kts 148°
2026-05-07 06:15 26.40967 -91.26953 39934 ft 433 kts 147°
2026-05-07 06:15 26.38528 -91.24792 38840 ft 461 kts 146°
2026-05-07 06:15 26.36055 -91.22503 38244 ft 472 kts 144°
2026-05-07 06:15 26.33628 -91.20111 38644 ft 457 kts 142°
2026-05-07 06:16 26.31389 -91.17734 39396 ft 432 kts 140°
2026-05-07 06:16 26.29327 -91.15379 39791 ft 421 kts 138°
2026-05-07 06:16 26.27344 -91.12970 39450 ft 429 kts 136°
2026-05-07 06:16 26.25323 -91.10395 38630 ft 450 kts 136°
2026-05-07 06:17 26.23132 -91.07928 38488 ft 444 kts 140°
2026-05-07 06:17 26.20985 -91.05514 38784 ft 433 kts 138°
2026-05-07 06:17 26.18948 -91.03080 38916 ft 428 kts 135°
2026-05-07 06:17 26.17484 -91.00115 37662 ft 463 kts 108°